Regional Weather Roundup
Issued by NWS Huntsville, AL

Home | Current Version | Previous Version | Text Only | Print | Product List | Glossary On
Versions: 1 2 3 4 5 6 7 8 9 10 11 12 13 14 15 16 17 18 19 20 21 22 23 24 25 26 27 28 29 30 31 32 33 34 35 36 37 38 39 40 41 42 43 44 45 46 47 48 49 50
000
ASUS44 KHUN 272010
RWRHUN

WEATHER ROUNDUP FOR THE TENNESSEE VALLEY
NATIONAL WEATHER SERVICE HUNTSVILLE AL
300 PM CDT THU AUG 27 2015

ALZ001>004-272100-
NORTHWEST ALABAMA

CITY           SKY/WX    TMP DP  RH WIND       PRES   REMARKS
SHOALS AIRPORT SUNNY     83  58  42 VRB5      30.06S
SHOALS TVA RES   N/A     81 N/A N/A MISG        N/A
$$

ALZ005>007-016-272100-
NORTH CENTRAL ALABAMA

CITY           SKY/WX    TMP DP  RH WIND       PRES   REMARKS
DECATUR AP     MOSUNNY   81  66  60 N7        30.04F
HUNTSVILLE AP  MOSUNNY   87  66  49 NE5       30.04S
HUN NWS/UAH      N/A     84  60  43 N1          N/A
MERIDIANVILLE  PTSUNNY   81  57  44 N6        30.05R
REDSTONE ARSN  MOSUNNY   80  64  57 NE3       30.03F HAZE
VINEMONT AP    FAIR      81  63  54 NE5       30.05F
$$

ALZ008>010-272100-
NORTHEAST ALABAMA

CITY           SKY/WX    TMP DP  RH WIND       PRES   REMARKS
ALBERTVILLE    MOSUNNY   82  70  65 E3        30.02F
FORT PAYNE     SUNNY     82  54  36 NE8       30.01F
SCOTTSBORO AP  SUNNY     84  64  51 N8        30.02F
SCOTTSBORO HCN   N/A     82 N/A N/A MISG        N/A
VALLEY HEAD      N/A     81 N/A N/A MISG        N/A
$$

TNZ076-096-097-272100-
SOUTHEASTERN MIDDLE TENNESSEE

CITY           SKY/WX    TMP DP  RH WIND       PRES   REMARKS
TULLAHOMA      MOSUNNY   79  59  50 CALM      30.08S
WINCHESTER     MOSUNNY   82  63  51 NE6       30.06S
$$

...SURROUNDING SITES...

CITY           SKY/WX    TMP DP  RH WIND       PRES   REMARKS
ATLANTA        MOSUNNY   84  65  52 E12       30.02F
ANNISTON       MOSUNNY   86  61  42 E8        29.99F
BIRMINGHAM     MOSUNNY   85  61  44 NE10G16   30.02F
CHATTANOOGA    MOSUNNY   84  62  47 N8        30.03F
DALTON         SUNNY     81  64  57 NW5       30.03F
GADSDEN        MOSUNNY   86  63  45 E7        29.99F
GOLDEN TRNGL   MOSUNNY   84  57  39 NE7G16    30.02F
HALEYVILLE     FAIR      81  63  54 CALM      30.08S
JACKSON TN     PTSUNNY   81  59  47 E8        30.09F
MEMPHIS        MOSUNNY   83  55  38 NE12      30.07F
NASHVILLE      MOSUNNY   83  49  30 VRB5      30.09R
OXFORD MS      FAIR      81  55  41 NE10      30.09F
ROME           PTSUNNY   84  66  54 N8        30.01F
SAVANNAH       SUNNY     81  32  17 N7        30.08F
TUPELO         MOSUNNY   82  55  39 NE12      30.07R
TUSCALOOSA     MOSUNNY   86  61  42 NE9       30.00F
$$

...GULF COAST WEATHER...

CITY           SKY/WX    TMP DP  RH WIND       PRES   REMARKS
GULFPORT       MOSUNNY   87  61  41 NE9       29.96F
PASCAGOULA     PTSUNNY   85  62  46 NE7       29.95F
MOBILE         MOSUNNY   87  62  43 N10       29.96F
GULF SHORES    PTCLDY    85  69  58 S10       29.93F
PENSACOLA      MOSUNNY   84  66  54 S10       29.93F
DESTIN         SUNNY     86  63  45 VRB6      29.93F
PANAMA CITY    SUNNY     87  62  43 W10       29.91F
APPALACHICOLA  SUNNY     88  70  55 SE9       29.90F HX  93
$$



USA.gov is the U.S. government's official web portal to all federal, state and local government web resources and services.